Погода в Старобачатах

Россия / Кемеровская область (Кузбасс)     54°14′11″N   86°12′09″E
темп.,
°C
ветер,
м/с
пор.,
м/с
влажн.,
%
обл.,
%
осадки,
мм/ч
давл.,
гПа
погр.,
м
21 июня, пн
пн2101:00+7ю41192100 0.1 1012348
04:00+6ююв410950 0.0 1012272
07:00+8юв410815 0.0 1010336
10:00+14юв786154 0.0 1008889
13:00+15юз7854100 0.0 10081432
16:00+11ю41179100 0.1 1008884
19:00+13ююз4779100 0.2 1008604
22:00+10ююв229153 0.0 100928
22 июня, вт
вт2201:00+9ююв2293100 0.0 100819
04:00+8вюв1293100 0.0 100613
07:00+10юв1292100 0.4 100553
10:00+10ююв2597100 2.9 1006273
13:00+14юз587156 6.4 10081363
16:00+16ююз786186 0.2 10081739
19:00+15юз586535 0.6 1009878
22:00+10ю498294 0.1 1010207
23 июня, ср
ср2301:00+9ю51090100 0.2 1010741
04:00+9ююз51196100 0.6 1010746
07:00+9зюз4797100 1.2 1012482
10:00+9зюз4892100 0.3 1014697
13:00+14зюз346889 0.9 10141270
16:00+14юз457082 1.2 10131261
19:00+14ююз4572100 1.8 10131021
22:00+10ююв3390100 0.3 101239
24 июня, чт
чт2401:00+8юв339189 0.3 101143
04:00+8вюв31191100 0.0 1007234
07:00+10юв41283100 0.0 1005370
10:00+11юв2492100 1.2 1005243
13:00+12ююв2693100 1.8 1005505
16:00+15юз6116177 0.3 10051792
19:00+13ююз5136912 0.4 10071538
22:00+10ю4108698 0.1 1008398
25 июня, пт
пт2501:00+10ю61185100 0.3 1008798
04:00+9ю71389100 0.3 1007717
07:00+8ю61293100 0.8 1008764
10:00+10ю61294100 0.3 1009767
13:00+10ююз5109394 0.6 1009767
16:00+12юз578547 0.8 1010807
19:00+13юз578354 1.5 1010919
22:00+9ю359483 0.1 1011100